Weather History for KIRK - January, 2014

Change the Weather History Date:

Saturday, January 11, 2014

  Actual Average Record
Temperature  
Mean Temperature 35 °F 26 °F  
Max Temperature 42 °F 35 °F 62 °F (2004)
Min Temperature 27 °F 17 °F -17 °F (1918)
Degree Days  
Heating Degree Days 30 39  
Month to date heating degree days 368 429  
Since 1 July heating degree days 2859 2772  
Cooling Degree Days 0 0  
Month to date cooling degree days 0 0  
Year to date cooling degree days 0 0  
Moisture  
Dew Point 29 °F    
Average Humidity 78    
Maximum Humidity 96    
Minimum Humidity 60    
Precipitation  
Precipitation 0.00 in 0.03 in 1.42 in (2011)
Month to date precipitation 0.67 0.34  
Year to date precipitation 0.67 0.34  
Sea Level Pressure  
Sea Level Pressure 29.72 in    
Wind  
Wind Speed 11 mph (West)    
Max Wind Speed 20 mph    
Max Gust Speed 26 mph    
Visibility 7 miles    
Events      
T = Trace of Precipitation, MM = Missing Value Source: NWS Daily Summary

Daily Weather History Graph

Daily Weather History Graph

Search for Another Location

Airport or City:

Trip Planner

Search our weather history database for the weather conditions in past years. The results will help you decide how hot, cold, wet, or windy it might be!

Date:

Astronomy

Jan. 11, 2014 Rise Set
Actual Time 7:31 AM CST 5:04 PM CST
Civil Twilight 7:01 AM CST 5:34 PM CST
Nautical Twilight 6:28 AM CST 6:08 PM CST
Astronomical Twilight 5:55 AM CST 6:41 PM CST
Moon 1:49 PM CST (1/11) 3:36 AM CST (1/11)
Length of Visible Light 10h 33m
Length of Day
9h 33m
Waxing Gibbous, 83% of the Moon is Illuminated
Jan 11
Waxing Gibbous
Jan 15
Full
Jan 23
Last Quarter
Jan 30
New
Feb 6
First Quarter

Hourly Weather History & Observations

Time (CST) Temp. Windchill Dew Point Humidity Pressure Visibility Wind Dir Wind Speed Gust Speed Precip Events Conditions
12:55 AM 35.1 °F 29.3 °F 33.1 °F 92% 29.60 in 9.0 mi WNW 6.9 mph - N/A   Overcast
1:55 AM 34.0 °F 27.2 °F 32.0 °F 92% 29.60 in 8.0 mi West 8.1 mph - N/A   Overcast
2:09 AM 34.0 °F 27.2 °F 32.0 °F 92% 29.56 in 7.0 mi West 8.1 mph - N/A   Overcast
2:21 AM 34.0 °F 27.2 °F 32.0 °F 92% 29.57 in 7.0 mi West 8.1 mph - N/A   Overcast
2:55 AM 34.0 °F 25.5 °F 32.0 °F 92% 29.62 in 7.0 mi West 11.5 mph - N/A   Overcast
3:18 AM 34.0 °F 26.6 °F 32.0 °F 92% 29.59 in 7.0 mi West 9.2 mph - N/A   Overcast
3:46 AM 34.0 °F 26.0 °F 30.9 °F 89% 29.60 in 6.0 mi West 10.4 mph - N/A   Overcast
3:55 AM 34.0 °F 25.0 °F 30.9 °F 89% 29.64 in 6.0 mi West 12.7 mph - N/A   Overcast
4:55 AM 34.0 °F 26.0 °F 30.9 °F 89% 29.65 in 6.0 mi West 10.4 mph - N/A   Overcast
5:15 AM 34.0 °F 26.0 °F 30.9 °F 89% 29.63 in 5.0 mi West 10.4 mph - N/A   Overcast
5:29 AM 34.0 °F 25.0 °F 30.9 °F 89% 29.63 in 6.0 mi West 12.7 mph - N/A   Overcast
5:55 AM 34.0 °F 23.8 °F 30.9 °F 89% 29.67 in 6.0 mi West 16.1 mph 23.0 mph N/A   Overcast
6:55 AM 33.1 °F 23.4 °F 30.0 °F 89% 29.68 in 6.0 mi West 13.8 mph 19.6 mph N/A   Overcast
7:41 AM 33.1 °F 24.9 °F 30.0 °F 89% 29.66 in 5.0 mi West 10.4 mph - N/A   Mostly Cloudy
7:55 AM 33.1 °F 24.9 °F 30.0 °F 89% 29.70 in 4.0 mi West 10.4 mph - N/A   Mostly Cloudy
8:05 AM 33.1 °F 25.5 °F 30.0 °F 89% 29.67 in 4.0 mi West 9.2 mph - N/A   Scattered Clouds
8:37 AM 33.1 °F 23.9 °F 30.0 °F 89% 29.69 in 3.0 mi West 12.7 mph - N/A   Mostly Cloudy
8:55 AM 33.1 °F 23.9 °F 28.9 °F 85% 29.73 in 3.0 mi WSW 12.7 mph - N/A   Mostly Cloudy
9:07 AM 34.0 °F 25.5 °F 30.0 °F 85% 29.70 in 3.0 mi WSW 11.5 mph - N/A   Partly Cloudy
9:55 AM 36.0 °F 29.6 °F 30.0 °F 79% 29.75 in 5.0 mi West 8.1 mph - N/A   Haze
10:55 AM 37.9 °F 29.2 °F 28.9 °F 70% 29.75 in 9.0 mi West 15.0 mph - N/A   Clear
11:55 AM 39.9 °F 31.8 °F 28.9 °F 65% 29.74 in 10.0 mi West 15.0 mph - N/A   Clear
12:55 PM 41.0 °F 33.9 °F 28.9 °F 62% 29.73 in 10.0 mi West 12.7 mph 21.9 mph N/A   Clear
1:55 PM 41.0 °F 32.8 °F 28.0 °F 60% 29.73 in 10.0 mi West 16.1 mph 24.2 mph N/A   Clear
2:55 PM 41.0 °F 32.8 °F 28.0 °F 60% 29.76 in 10.0 mi West 16.1 mph 23.0 mph N/A   Clear
3:55 PM 41.0 °F 33.9 °F 28.0 °F 60% 29.80 in 10.0 mi West 12.7 mph 24.2 mph N/A   Clear
4:55 PM 37.9 °F 30.5 °F 28.0 °F 68% 29.83 in 10.0 mi West 11.5 mph - N/A   Clear
5:55 PM 36.0 °F 29.0 °F 28.0 °F 73% 29.86 in 10.0 mi West 9.2 mph - N/A   Clear
6:55 PM 35.1 °F 27.9 °F 28.0 °F 76% 29.88 in 10.0 mi West 9.2 mph - N/A   Clear
7:55 PM 33.1 °F 26.9 °F 27.0 °F 78% 29.90 in 10.0 mi West 6.9 mph - N/A   Clear
8:55 PM 30.0 °F 26.5 °F 26.1 °F 85% 29.92 in 10.0 mi West 3.5 mph - N/A   Clear
9:55 PM 27.0 °F 21.6 °F 24.1 °F 89% 29.93 in 10.0 mi WSW 4.6 mph - N/A   Clear
10:55 PM 30.9 °F 25.2 °F 27.0 °F 85% 29.93 in 10.0 mi WSW 5.8 mph - N/A   Clear
11:55 PM 30.0 °F 24.1 °F 26.1 °F 85% 29.93 in 10.0 mi SW 5.8 mph - N/A   Clear